ECMWFFLT2_850_thetae_021.txt.gz
Theta_e
333 331 330 329 328 327 327 327 328 329 330 331 332 332 332 330 327 328 330 329 327 327 328 328 329 328 327 327 326 326 326 327 327 326 324 323 323 322 320 321 322 319 318 321 317 315 316 314 320 329 332 332 332 333 332 332 332 331 331 329 327 327
333 331 330 329 329 328 327 328 329 330 331 332 332 332 330 328 327 329 330 328 327 328 327 327 328 327 326 327 325 324 325 324 324 323 321 321 320 319 318 318 320 320 317 320 319 316 319 319 323 330 333 333 333 332 331 332 331 331 331 329 328 325
333 331 330 330 330 329 329 329 330 332 332 332 332 331 328 327 328 329 329 328 328 328 327 327 329 328 327 327 327 325 324 324 323 322 320 320 320 318 318 317 319 321 318 319 320 318 322 323 324 329 331 330 332 332 331 332 332 331 331 329 327 321
333 332 331 331 331 330 330 330 332 332 332 332 331 329 327 327 329 329 329 329 329 329 328 327 329 329 328 328 328 326 324 324 322 321 320 320 319 319 318 317 319 320 318 319 321 321 323 324 325 326 326 326 331 332 331 332 331 331 330 329 326 321
333 333 332 332 332 330 331 332 333 332 331 331 329 327 326 328 329 329 329 330 330 330 329 326 326 327 327 328 328 326 324 324 322 321 321 321 320 318 318 319 323 322 321 324 326 327 326 325 325 324 325 327 331 332 331 331 331 330 329 328 327 324
334 334 334 334 333 331 332 333 332 331 331 330 327 326 327 329 330 330 331 331 330 329 328 325 324 325 327 328 328 327 325 325 325 323 324 326 324 321 321 323 327 328 327 329 330 330 330 328 326 326 328 331 332 332 331 330 330 331 330 329 328 324
335 335 336 336 333 332 333 332 331 331 330 327 326 326 327 329 331 332 332 331 330 329 327 325 325 326 327 327 328 327 326 327 328 326 326 328 328 326 326 326 329 330 330 330 330 330 331 330 329 330 332 332 333 332 332 331 331 331 330 329 327 324
335 334 336 336 333 332 333 332 330 330 329 327 328 328 328 331 332 332 331 330 329 329 326 326 327 327 327 328 328 328 328 327 328 328 327 327 328 329 329 329 330 331 331 330 331 330 330 331 331 332 332 332 333 332 331 331 331 331 330 328 326 323
335 335 336 336 333 333 333 333 331 330 328 327 329 329 330 332 332 331 331 329 329 329 326 326 327 327 327 328 329 328 327 327 327 327 327 326 327 328 329 330 330 331 331 330 330 329 330 331 332 333 332 331 332 332 330 331 331 330 329 328 326 324
336 336 335 336 335 334 333 333 332 330 328 328 329 329 330 330 330 330 329 329 329 329 327 326 327 327 326 327 329 327 327 327 327 327 327 327 328 329 329 329 330 330 330 330 329 329 330 331 331 332 332 331 331 331 330 330 331 330 329 328 327 324
337 336 336 336 335 334 333 333 332 330 329 330 329 328 329 329 329 328 328 328 328 327 327 326 327 327 327 328 328 327 327 328 329 328 327 328 329 329 329 329 329 330 329 329 328 328 329 330 331 331 331 331 331 330 330 330 330 330 329 329 327 326
336 336 336 335 334 334 332 331 330 328 329 330 328 327 328 327 325 325 327 328 328 327 325 325 327 327 329 328 326 326 327 327 328 328 328 329 329 328 329 329 329 329 328 328 327 327 329 330 330 331 331 331 331 330 330 330 329 330 330 329 328 327
337 335 335 334 333 331 329 329 329 327 328 328 326 326 327 326 324 325 327 329 328 326 324 324 324 326 329 328 325 327 326 325 326 328 328 329 328 327 328 328 329 328 328 327 326 327 329 330 330 331 330 330 329 329 330 330 329 330 329 329 329 329
336 335 335 332 330 329 328 328 328 328 328 325 325 327 328 328 327 327 328 329 327 325 324 324 324 325 327 327 326 326 326 326 326 327 327 328 327 328 328 328 329 327 327 327 326 328 329 329 330 330 330 329 328 329 329 329 329 329 328 328 329 329
335 335 333 330 329 328 328 328 329 328 326 326 328 329 329 328 327 326 328 328 327 325 324 324 325 326 326 326 326 325 326 327 327 327 325 326 327 328 328 327 328 327 327 327 326 328 329 329 329 329 329 329 328 328 329 328 328 328 327 328 330 329
333 332 331 328 327 327 327 327 326 327 328 330 330 328 327 326 324 325 326 327 327 327 326 326 326 327 327 327 326 325 326 328 328 327 325 326 328 328 328 327 328 328 326 327 326 327 328 329 329 329 329 329 328 328 328 328 327 328 328 328 330 328
330 330 329 328 328 327 327 326 325 328 330 330 328 326 325 324 324 325 326 327 328 327 328 328 327 328 328 327 326 326 327 328 328 328 327 328 328 328 328 328 328 328 326 326 326 326 328 329 329 329 329 329 328 328 327 328 328 328 329 329 329 327
329 329 328 328 328 327 327 327 328 329 328 327 326 326 326 326 326 326 326 326 327 327 328 328 328 328 328 327 327 327 327 329 329 328 328 328 328 327 327 328 329 327 326 326 325 324 326 329 329 327 328 329 328 328 327 328 328 328 329 329 328 326
328 328 327 327 327 326 326 327 327 327 326 326 326 327 328 328 329 328 327 327 328 329 328 328 328 329 328 328 329 328 328 329 329 328 326 327 328 326 325 327 329 327 326 327 326 325 327 329 328 326 327 328 328 328 328 327 328 328 328 328 327 327
329 327 326 326 326 325 324 325 326 326 326 327 327 328 329 328 329 329 329 329 330 330 328 327 328 329 330 329 329 329 329 329 328 328 326 327 327 325 326 327 329 329 327 327 328 328 329 329 328 327 327 327 327 328 328 327 328 328 328 326 326 327
328 326 325 326 325 323 324 325 325 326 325 327 328 328 329 328 328 329 330 330 330 328 327 327 327 328 329 328 328 328 328 328 327 326 325 326 326 326 328 327 327 328 327 327 329 329 329 329 328 327 328 327 328 328 327 328 328 327 326 325 324 325
326 326 325 325 324 325 326 326 325 325 325 327 329 329 329 327 326 328 329 329 328 327 327 326 326 327 328 327 327 327 328 327 326 325 325 326 325 326 328 328 327 326 326 328 330 328 329 329 328 328 327 327 328 328 328 328 327 326 325 324 323 322
325 325 324 324 325 326 326 324 325 325 325 328 329 329 327 324 325 328 328 328 328 328 328 327 327 327 327 327 327 327 327 327 326 325 325 325 325 326 326 327 326 325 326 328 329 327 329 329 328 328 327 327 328 328 328 328 327 326 325 325 324 323
323 324 323 324 325 325 325 325 326 326 326 326 328 328 324 321 323 326 328 328 328 327 327 328 328 327 327 327 327 327 327 326 325 324 325 325 325 325 325 326 326 326 326 326 326 326 328 328 328 328 327 327 327 327 327 327 326 325 324 324 324 323
322 322 323 324 324 323 325 325 325 327 327 326 327 325 322 321 324 324 324 327 328 328 327 327 328 327 328 328 326 326 327 326 325 325 325 325 325 325 325 325 325 325 326 325 326 327 327 328 328 328 327 327 327 327 326 325 325 324 324 323 323 323
321 321 322 323 321 322 324 322 322 327 326 325 324 322 321 324 327 326 323 323 324 325 325 325 326 325 326 328 327 327 327 326 326 326 326 324 324 325 326 325 324 326 326 327 328 328 327 327 327 326 326 326 325 326 325 324 323 323 323 322 322 322
320 321 322 322 319 322 324 319 319 322 320 319 319 321 325 326 327 327 324 320 320 322 322 321 320 319 319 323 325 325 325 325 325 324 326 325 323 324 325 324 325 325 326 327 328 328 327 326 325 325 326 326 325 325 325 324 323 322 322 322 321 321
321 321 321 321 320 322 321 314 313 317 319 321 320 322 326 326 327 326 322 321 323 324 322 320 319 319 317 318 320 323 323 324 324 324 324 325 324 324 324 325 325 325 325 325 326 327 326 325 324 325 326 326 325 325 325 324 323 322 321 321 321 321
322 321 321 320 320 319 314 311 315 320 324 327 325 323 324 325 324 321 320 324 325 325 323 321 321 323 321 320 321 323 324 324 324 324 323 324 325 325 325 326 327 327 325 325 325 327 327 326 325 325 325 326 324 324 325 324 323 322 321 321 320 320
322 321 322 320 317 313 312 315 320 324 326 327 324 319 317 319 317 316 321 325 325 325 323 320 322 324 323 322 320 321 324 325 324 324 324 324 324 325 326 326 327 328 327 325 324 325 326 326 326 325 325 325 323 323 325 324 323 322 321 320 318 315
322 321 321 319 315 314 317 321 322 324 324 320 316 313 311 311 310 311 319 324 324 322 321 320 320 323 324 322 319 319 322 325 324 324 325 325 323 324 325 325 326 326 327 327 325 324 325 325 325 326 326 325 323 323 324 324 323 322 321 318 314 312
322 320 320 319 318 319 323 325 323 322 320 314 311 311 309 308 308 308 314 319 319 318 321 321 320 321 322 320 318 319 321 323 324 325 325 323 321 322 324 325 325 324 324 325 324 323 323 325 325 325 325 325 323 323 324 323 322 322 320 318 315 312
321 320 320 321 321 322 323 324 322 318 315 312 312 312 311 312 312 312 314 316 317 319 321 321 319 318 319 318 319 321 321 321 322 323 323 321 320 322 324 323 323 322 322 322 323 323 324 325 324 324 323 323 323 321 321 322 321 322 321 318 316 313
320 321 322 322 323 324 323 323 320 317 314 313 313 313 315 318 317 316 318 319 321 322 321 321 320 319 320 321 320 320 320 319 320 321 322 322 322 324 323 321 321 320 320 321 322 324 324 324 323 322 322 321 321 318 317 319 320 321 320 318 316 314
320 322 323 323 325 325 323 322 320 318 316 315 315 315 317 320 319 318 319 321 323 323 322 323 322 320 322 323 321 320 319 318 319 321 322 323 324 325 324 322 322 321 322 323 323 323 322 321 319 320 320 319 318 316 315 317 319 319 320 318 316 314
320 321 323 325 326 325 321 320 321 319 316 315 315 316 316 317 317 316 319 322 323 323 323 324 322 319 321 323 322 320 317 316 320 322 323 323 323 323 323 323 322 322 323 324 323 322 320 317 316 316 317 317 317 316 315 316 318 317 317 317 315 313
322 324 326 326 325 323 320 320 322 321 319 316 316 317 317 315 314 315 318 321 322 323 323 323 322 318 318 319 319 317 317 318 320 322 322 323 322 322 321 321 321 322 323 323 323 322 318 316 315 315 315 316 315 314 314 315 316 315 314 314 313 313

ECMWFFLT2_850_thetae_024.txt.gz
Theta_e
328 329 330 332 333 332 331 329 327 329 330 331 332 331 331 330 328 326 325 326 327 328 328 329 329 328 328 326 326 328 328 326 325 325 324 323 323 323 322 322 320 320 320 315 313 315 322 332 334 334 334 332 331 331 332 332 331 331 330 329 325 317
328 328 329 330 332 332 330 328 328 330 330 331 332 331 331 329 327 328 327 327 327 328 329 328 328 328 326 325 325 326 325 324 323 322 322 321 321 321 320 321 320 319 320 317 314 313 323 333 333 333 333 331 331 332 332 331 331 331 330 328 323 317
329 328 328 329 331 332 329 328 329 330 331 332 332 331 330 327 328 330 329 327 328 327 328 328 327 327 326 325 325 325 324 323 323 321 320 320 319 319 318 319 320 319 319 319 315 315 325 333 333 333 333 331 332 331 331 331 331 331 330 327 323 321
329 328 329 330 331 333 330 329 329 330 331 332 331 331 329 327 329 329 327 327 327 327 327 328 329 328 327 327 325 324 323 322 322 321 320 320 319 319 318 318 319 318 319 320 319 320 328 334 332 332 333 332 331 330 330 331 331 330 330 327 326 324
330 330 331 331 331 332 330 329 329 331 332 332 331 329 326 326 329 328 327 328 328 327 328 329 330 329 329 328 326 324 323 321 320 320 320 319 319 318 318 319 318 319 322 324 323 324 329 333 330 330 332 331 329 328 330 330 330 329 329 328 327 325
331 333 332 330 330 330 330 329 329 331 332 331 330 328 325 327 329 328 329 329 329 328 327 329 329 329 329 328 327 325 325 322 320 321 321 320 319 319 320 320 321 324 327 328 327 325 328 330 328 330 333 331 328 328 329 329 329 330 330 329 327 324
333 333 329 328 330 329 329 329 330 331 331 330 328 326 326 328 329 329 330 329 328 328 327 327 328 328 328 327 326 326 326 325 323 324 325 323 321 322 325 325 326 329 330 330 329 326 325 325 326 329 333 331 329 329 329 330 330 330 330 329 326 323
332 330 327 327 330 329 328 329 330 331 331 329 327 326 328 329 330 331 331 330 329 329 328 328 328 328 327 326 327 326 326 327 326 326 328 327 325 326 328 328 329 330 330 330 329 327 325 324 326 329 331 331 330 331 331 331 331 331 330 328 325 322
331 329 328 328 328 328 329 331 331 330 329 327 325 327 329 330 331 331 330 329 329 328 329 329 329 328 326 327 327 325 325 326 326 327 327 327 328 328 328 329 330 330 330 330 329 329 327 326 327 329 330 330 330 332 331 331 331 331 330 328 325 322
331 329 328 328 329 329 330 331 330 330 328 325 325 327 329 330 330 330 330 329 329 329 329 329 328 327 326 327 327 325 325 326 326 326 325 326 329 329 329 330 330 330 330 329 329 330 329 329 329 330 331 331 331 332 332 331 331 331 329 327 325 323
333 331 329 330 331 330 331 330 330 329 327 325 327 328 328 329 329 329 329 329 329 329 328 328 328 327 326 327 328 326 326 327 327 326 326 327 328 329 329 330 331 330 329 329 329 328 329 330 330 331 332 331 331 331 331 331 331 330 329 327 326 325
334 332 330 332 333 332 332 330 329 328 326 326 327 326 326 327 328 328 328 328 329 328 326 326 328 328 327 327 327 326 327 327 327 326 326 327 328 329 329 329 330 330 329 329 328 328 328 329 329 330 331 331 331 331 330 330 330 330 330 328 327 325
335 333 332 333 334 332 332 330 327 327 327 326 326 325 324 325 326 326 326 328 329 327 325 326 327 328 329 328 326 326 327 326 326 327 326 328 328 328 329 329 329 329 329 328 328 328 327 327 328 329 330 331 331 331 330 330 330 330 329 328 327 326
336 335 334 334 334 332 330 329 326 327 327 325 325 325 324 324 324 325 326 327 329 327 325 325 326 326 329 329 326 327 327 326 326 326 327 328 327 327 327 327 328 329 328 328 327 326 326 327 329 329 330 330 330 330 329 330 331 329 327 328 328 327
336 336 335 334 333 330 328 327 326 327 328 325 325 325 324 324 324 325 327 328 328 326 324 324 325 326 328 328 327 327 327 327 326 326 327 327 327 327 328 327 328 328 327 327 326 326 327 328 329 329 329 329 329 329 329 330 329 326 325 327 328 326
336 335 334 333 331 329 328 327 326 327 326 324 325 326 327 327 327 327 328 328 328 325 324 324 325 326 327 327 327 326 326 327 327 327 326 326 327 328 328 327 327 328 327 326 326 327 328 329 329 329 329 328 328 329 329 329 326 324 325 326 326 325
335 333 332 331 330 329 328 327 326 325 324 325 327 329 328 327 327 326 326 326 327 326 325 325 326 327 327 327 327 327 327 327 327 327 326 325 327 328 328 328 327 327 327 326 326 328 328 329 329 329 328 328 328 329 330 328 325 325 325 324 325 325
333 331 330 330 330 329 329 328 327 326 327 328 329 328 327 325 325 325 325 326 326 326 325 326 327 328 327 327 327 328 327 327 328 327 327 327 327 327 328 329 328 327 327 327 327 327 328 329 329 329 328 328 329 329 329 328 326 326 326 325 325 326
330 329 329 329 328 328 327 328 328 328 328 327 326 326 326 325 326 325 324 326 326 327 327 327 328 328 327 326 327 328 328 328 329 328 328 328 327 327 327 328 328 327 326 327 326 327 328 329 329 328 328 328 328 329 329 328 327 327 326 326 326 326
329 328 328 328 327 326 326 327 327 326 325 326 326 327 327 327 327 326 326 328 329 329 328 328 327 327 327 328 328 328 328 328 329 329 329 328 327 327 326 327 328 327 326 326 326 327 328 328 328 328 329 329 329 329 329 328 327 326 326 325 326 326
329 328 328 327 326 326 326 326 325 325 325 326 328 328 327 328 328 328 329 330 330 329 327 327 326 327 327 328 328 328 328 328 329 329 328 327 327 326 325 327 329 327 326 326 326 327 328 328 328 328 329 329 329 328 328 328 327 325 324 323 324 325
328 328 327 326 324 324 324 325 325 326 326 328 328 327 326 327 328 328 329 329 329 327 325 325 326 327 327 326 326 327 327 327 328 328 327 327 327 325 325 328 329 328 327 327 328 328 328 328 328 328 328 328 329 328 328 328 326 325 323 322 322 323
326 326 324 323 322 323 324 325 325 326 327 327 328 327 325 326 328 327 327 328 327 326 326 325 325 327 326 325 326 327 326 327 327 327 327 326 325 325 327 328 328 329 328 327 329 328 328 328 328 328 327 328 328 328 328 327 326 325 324 323 323 323
325 324 323 323 323 324 325 326 327 327 328 328 326 326 325 326 327 326 326 327 327 327 326 326 326 326 326 325 327 327 326 327 327 326 325 324 323 324 327 328 327 328 327 326 328 328 328 329 328 328 327 328 328 328 327 327 326 326 325 324 323 323
324 324 324 325 325 325 325 326 328 329 329 327 325 324 325 325 327 327 327 327 327 327 327 326 326 326 326 326 327 327 326 327 325 324 324 323 324 324 326 327 326 327 326 326 327 327 328 329 328 328 327 327 327 327 327 326 325 324 324 324 323 323
324 325 325 326 326 325 326 325 326 328 328 326 325 324 322 322 323 324 326 327 326 326 326 326 326 326 326 325 326 326 325 325 324 324 324 324 325 325 325 326 326 326 326 326 326 326 327 328 328 327 327 326 326 326 326 325 324 322 323 323 323 323
324 325 326 326 325 326 326 325 325 327 327 324 323 323 322 322 321 319 320 322 323 323 323 322 323 325 327 326 326 326 326 325 325 325 325 325 325 325 324 325 325 326 326 326 327 327 327 327 327 327 327 327 325 325 325 324 323 322 322 322 322 323
324 327 327 326 326 326 325 326 327 326 325 323 319 321 323 322 320 317 315 318 319 319 319 318 317 319 323 326 326 325 324 324 324 325 325 324 324 325 325 325 326 326 327 327 327 328 328 327 327 327 327 327 325 324 324 324 323 322 322 321 322 323
326 328 326 325 326 325 325 325 326 323 322 320 316 319 322 322 321 317 315 318 320 318 317 317 316 315 316 320 324 324 323 322 323 324 325 325 324 324 324 324 326 326 326 326 327 328 328 327 326 326 325 326 325 324 324 323 323 322 321 322 322 321
326 327 326 326 325 323 323 322 320 317 316 316 315 319 323 323 321 316 315 321 322 321 319 318 319 318 316 317 317 319 321 322 323 324 325 325 324 324 323 324 325 326 326 326 326 327 327 326 326 325 325 325 324 323 324 323 322 322 321 321 321 320
325 326 325 324 322 321 322 319 316 316 316 314 314 316 319 320 317 312 314 319 322 323 321 320 322 322 321 320 317 316 318 320 322 323 323 323 323 324 324 325 326 326 326 325 326 326 326 326 326 325 325 325 324 322 324 323 322 322 321 321 321 318
323 324 322 321 322 324 324 320 318 319 317 314 312 312 312 312 310 310 313 315 318 321 320 321 324 324 324 322 319 319 320 321 322 322 322 322 322 323 324 324 325 325 326 325 324 324 325 325 325 325 325 325 324 322 324 324 322 322 321 321 320 316
323 322 319 321 324 325 325 323 321 321 317 313 311 309 307 308 308 310 312 314 315 317 317 320 323 324 324 321 317 320 322 323 324 323 323 323 322 321 322 323 324 324 324 324 322 322 323 324 325 325 324 324 323 323 324 324 323 322 320 318 316 313
323 322 319 319 323 323 324 324 323 321 317 312 310 309 308 309 310 311 312 314 315 317 318 319 320 319 320 320 317 319 321 321 323 324 324 323 321 321 322 323 324 324 322 322 321 321 323 324 324 324 324 323 323 324 324 324 323 321 319 314 311 311
323 323 320 320 323 323 324 325 322 319 315 312 311 311 312 313 313 313 314 316 319 320 319 320 320 317 317 320 320 320 320 319 320 322 322 320 319 321 322 322 322 321 319 319 320 322 323 324 324 324 324 322 322 322 322 323 322 322 320 314 311 310
323 323 323 323 325 325 325 324 320 316 313 313 313 313 315 316 314 314 316 318 320 321 320 320 321 319 317 319 320 319 318 318 320 320 320 320 320 322 321 319 319 319 319 320 321 323 323 322 322 322 321 318 316 317 318 321 322 322 321 316 312 311
322 323 325 327 327 326 325 322 317 315 315 315 314 315 316 315 314 314 318 320 320 321 321 321 321 320 318 317 319 318 316 318 320 320 320 321 322 322 321 320 320 320 321 322 323 323 322 321 321 321 319 316 314 315 317 319 321 321 321 317 312 311

ECMWFFLT2_850_thetae_030.txt.gz
Theta_e
336 336 335 334 333 331 332 333 328 324 326 328 329 330 330 331 332 333 333 333 333 334 334 333 332 331 331 330 330 329 326 324 323 322 321 319 317 315 320 328 331 331 330 330 330 328 327 327 328 328 328 328 326 326 327 328 325 322 322 321 318 316
334 336 336 335 334 332 332 333 328 325 327 328 329 331 330 331 332 333 333 333 333 333 334 333 331 330 329 329 330 329 327 325 324 323 322 321 319 316 317 322 327 330 331 331 331 331 327 328 329 328 329 329 326 326 328 329 327 325 325 324 321 317
333 334 335 335 335 333 332 332 327 324 328 329 330 331 330 331 332 333 332 332 332 332 334 332 329 328 327 329 329 327 327 325 324 323 322 322 321 318 316 316 319 324 330 332 332 332 329 328 330 329 329 329 327 327 329 329 328 327 326 324 323 319
331 333 335 335 335 333 332 331 326 325 329 330 331 331 331 331 331 331 330 330 330 331 333 330 329 329 328 328 326 325 325 323 323 321 320 321 321 320 318 316 316 319 327 332 332 332 330 328 330 330 329 329 328 328 329 329 328 327 326 324 323 320
329 331 334 335 335 333 332 331 327 327 330 330 331 331 331 329 327 327 327 328 329 330 330 328 328 328 326 325 324 324 323 322 321 320 319 319 319 320 320 318 316 316 322 329 330 332 332 329 330 330 329 329 329 329 329 329 329 327 326 325 323 321
328 330 332 334 334 332 332 331 327 327 330 330 331 332 330 327 325 326 326 328 328 329 328 327 326 326 324 324 324 323 322 322 321 320 320 319 319 319 319 319 318 316 317 323 328 331 332 329 330 330 329 329 329 329 329 329 329 328 327 325 323 321
328 329 331 334 334 332 332 330 326 327 330 330 331 332 329 327 327 327 327 327 327 328 327 327 326 326 325 324 323 322 321 321 320 320 319 319 319 318 318 319 319 317 315 318 325 331 331 329 330 330 329 329 330 330 329 330 329 329 327 324 322 319
330 329 330 333 333 332 332 329 326 328 330 330 332 332 329 328 328 327 327 327 328 329 328 327 327 327 325 324 323 322 321 320 320 320 319 318 318 318 318 318 319 319 316 318 325 331 330 329 330 330 330 329 330 330 330 330 330 329 326 321 320 317
330 329 330 332 333 333 332 329 326 328 330 330 332 331 328 328 328 327 327 327 328 329 328 327 327 327 326 325 324 322 320 321 323 323 320 319 319 319 318 319 320 321 320 320 327 331 330 329 329 329 330 330 330 330 330 330 330 328 324 320 319 317
330 330 331 332 333 332 332 329 327 328 330 330 331 330 327 328 328 328 329 328 328 328 327 327 327 328 327 326 325 325 323 323 326 326 323 322 322 320 319 320 322 323 323 324 328 330 329 328 328 328 330 330 330 330 330 330 330 326 323 320 318 317
330 331 331 332 332 332 331 330 329 328 329 330 331 328 327 328 328 329 330 329 328 327 327 328 328 328 327 327 327 327 327 326 327 328 326 325 324 323 322 322 324 324 325 325 327 330 329 328 327 328 329 329 330 330 330 330 329 327 324 321 319 318
331 331 332 331 332 331 330 330 329 329 329 330 331 327 326 329 329 330 331 330 328 328 328 328 328 328 327 328 327 327 328 327 327 327 327 327 326 326 325 325 326 326 326 326 326 328 329 328 327 327 327 328 329 330 331 330 329 328 326 323 321 319
333 333 332 333 333 331 330 330 329 329 328 330 330 326 326 329 330 330 331 330 329 328 327 328 328 327 327 328 328 327 327 327 327 327 326 327 327 327 327 327 328 328 328 328 327 326 326 326 326 326 326 328 330 330 330 330 329 328 326 325 322 320
334 334 334 334 333 330 329 329 329 329 328 330 328 324 326 330 330 330 331 330 329 326 324 326 328 327 327 327 328 328 327 327 328 327 326 327 328 328 327 328 329 329 329 329 328 327 326 325 326 327 327 329 330 330 330 329 329 328 326 325 323 322
335 336 335 334 333 330 328 328 330 329 329 330 327 325 328 329 330 331 330 328 327 326 324 324 327 328 327 328 328 327 327 327 327 327 326 327 328 328 328 329 329 330 329 329 329 329 327 327 328 328 329 330 330 330 329 329 329 328 327 326 325 325
334 335 335 334 333 330 328 328 330 330 330 329 327 327 328 328 330 330 328 326 326 327 326 324 326 326 327 329 328 327 327 326 326 326 326 327 328 328 328 328 328 329 329 328 328 328 327 327 328 330 330 328 328 329 329 329 329 328 327 327 326 325
333 333 334 333 333 331 329 329 330 330 330 328 326 327 327 329 330 327 325 325 327 328 326 325 325 324 326 328 328 327 327 326 326 326 326 327 328 327 327 327 327 328 328 327 327 327 327 327 329 329 328 327 328 328 328 328 328 328 327 326 326 325
333 333 333 333 333 332 331 331 330 330 330 327 326 327 327 330 329 325 324 326 328 328 326 326 325 324 325 327 327 327 327 326 326 327 326 326 327 327 327 327 327 328 328 327 326 326 326 328 329 328 328 328 328 327 327 327 327 327 327 326 326 325
335 335 334 334 333 332 332 331 330 330 329 327 327 327 327 328 326 324 326 328 328 328 326 326 325 325 326 326 326 327 327 326 327 327 326 326 326 326 327 327 327 327 327 327 326 327 328 328 328 328 328 328 327 327 327 326 326 326 326 326 326 325
336 336 335 334 332 331 332 331 329 329 327 326 327 326 325 326 327 326 327 328 328 327 327 326 326 326 326 326 327 327 327 327 327 327 327 326 326 327 328 327 327 327 326 326 327 328 328 328 328 328 328 328 328 327 327 326 326 326 326 326 325 325
336 335 334 334 332 332 331 329 328 327 326 326 326 325 326 328 327 327 327 328 328 327 327 326 326 326 326 327 328 327 326 327 328 328 327 327 327 327 328 328 327 326 326 326 327 328 328 328 328 328 328 328 328 327 327 327 326 326 325 324 323 322
335 334 334 333 332 332 330 327 327 328 326 325 325 326 328 328 326 326 326 326 326 326 326 326 326 326 327 328 328 327 326 327 328 328 328 328 327 327 327 328 327 326 327 327 327 328 328 328 328 328 328 328 327 327 326 326 325 324 322 321 320 319
334 334 333 331 330 330 327 326 327 327 325 325 326 328 329 327 325 325 325 325 326 327 327 326 326 327 327 328 328 328 327 327 328 328 329 328 327 327 327 328 327 326 327 327 327 327 328 328 328 328 327 327 327 327 326 324 323 322 322 321 321 320
333 332 331 329 328 327 326 325 326 326 327 327 327 327 326 325 325 326 326 327 328 328 327 326 325 326 326 327 327 328 328 328 328 328 328 327 327 326 326 328 327 326 326 326 327 327 327 328 328 327 327 327 326 326 326 324 322 322 323 322 322 321
331 331 329 327 326 326 326 325 326 327 328 327 326 325 325 326 326 327 328 327 327 326 325 324 324 325 326 327 327 327 327 327 327 327 327 327 327 326 326 327 328 327 327 326 326 327 327 327 328 327 326 326 326 325 325 324 322 323 323 323 322 322
329 328 326 326 326 326 326 326 327 328 327 325 325 325 325 326 326 326 327 326 325 325 324 324 324 325 326 326 326 327 327 326 326 326 326 326 327 326 326 327 328 328 327 327 327 327 327 327 328 328 326 325 325 325 325 323 323 323 323 323 322 321
327 326 326 326 326 326 327 327 327 326 325 324 324 323 324 325 325 325 325 325 325 325 325 325 325 325 325 325 326 327 326 325 326 326 326 326 326 326 326 327 328 328 328 328 328 327 327 328 328 328 327 326 325 325 324 324 323 323 323 324 323 321
326 325 325 325 326 326 327 327 326 324 324 323 322 322 324 325 324 325 325 325 325 325 325 324 324 324 325 325 326 326 325 325 326 326 326 326 325 325 326 327 328 328 328 328 328 328 328 328 328 327 327 326 325 325 324 324 324 323 323 324 323 322
325 325 325 324 325 326 326 325 324 324 323 322 321 322 323 324 325 325 325 324 324 324 324 324 324 324 324 325 325 326 325 324 324 325 325 325 324 324 326 327 327 327 327 327 327 327 328 328 328 327 327 327 326 325 325 324 324 323 322 323 323 322
325 325 324 325 325 325 325 324 323 323 322 320 320 321 322 322 322 323 323 323 323 322 321 321 323 324 324 324 325 325 325 325 325 325 325 325 325 325 325 326 326 326 326 326 326 326 327 327 328 327 326 326 327 325 324 324 324 324 322 322 322 322
325 324 324 324 325 325 324 323 323 323 321 320 320 319 318 317 316 317 318 318 318 317 317 317 319 320 321 323 324 323 323 324 324 324 325 324 324 325 325 325 325 325 326 326 325 326 326 327 327 327 327 326 326 325 324 323 323 323 322 321 322 322
324 323 323 324 324 324 323 323 324 324 322 319 319 317 315 313 314 316 316 316 315 315 315 316 317 317 317 320 322 323 322 322 322 323 324 324 324 324 324 324 325 325 325 325 324 325 326 327 327 327 327 326 325 326 324 322 323 323 322 322 321 321
323 323 323 324 324 323 323 324 325 325 322 319 319 318 315 314 316 317 318 318 317 316 316 317 317 318 317 317 318 319 321 321 321 322 323 322 323 323 323 324 324 324 325 324 324 325 325 326 327 326 326 325 325 325 324 323 323 323 322 321 321 321
323 323 323 323 323 323 324 324 326 326 323 319 318 318 317 316 315 318 320 320 318 317 318 319 319 319 318 317 316 315 318 320 321 322 322 320 320 321 323 324 324 325 325 325 324 324 325 326 326 325 325 325 324 324 323 323 323 322 322 322 321 320
324 324 324 323 324 325 325 325 326 326 322 319 319 318 318 316 315 318 321 320 319 319 319 320 319 318 318 317 315 314 315 319 321 323 322 321 320 320 321 323 324 324 325 325 324 323 323 325 325 325 325 324 324 324 323 323 323 322 322 321 321 320
324 325 324 324 325 325 325 324 324 323 321 320 319 317 315 315 316 318 319 319 319 320 320 321 320 318 317 317 316 315 317 319 321 322 323 322 321 320 320 322 323 323 324 324 324 322 321 323 324 324 324 324 324 325 323 323 323 322 321 321 320 319
325 326 325 324 325 324 322 322 322 322 322 319 315 313 312 312 314 316 317 318 319 320 320 321 320 318 318 317 315 315 316 316 317 319 320 321 320 320 321 322 323 323 323 322 321 320 320 322 323 323 324 324 324 325 323 323 324 322 321 321 319 316

ECMWFFLT2_850_thetae_033.txt.gz
Theta_e
332 331 331 332 332 332 333 332 326 324 326 327 329 331 333 334 333 332 332 331 332 332 331 331 330 330 331 331 329 328 326 321 320 319 317 320 326 329 329 330 329 326 323 321 323 325 326 327 327 326 326 325 326 325 323 322 322 320 317 316 315 312
334 332 332 332 332 332 333 332 327 327 329 328 330 331 332 333 334 334 334 333 334 333 332 331 331 331 331 331 329 325 324 322 319 318 317 318 323 328 330 330 331 329 327 323 324 327 328 328 328 328 327 327 327 327 326 325 324 322 320 319 317 316
335 334 333 333 332 332 333 333 329 328 330 329 330 331 331 333 333 333 333 334 334 334 333 332 332 331 330 331 329 325 324 323 321 319 317 317 319 324 329 331 331 331 330 326 326 328 329 329 330 329 328 328 328 328 327 326 324 323 322 321 319 318
335 335 335 335 334 332 332 333 329 328 330 330 331 331 331 332 334 333 333 333 334 335 333 331 331 330 330 331 329 326 325 323 321 320 319 318 317 320 326 330 330 330 331 329 328 329 330 330 330 330 328 328 328 328 327 326 324 323 323 322 318 318
335 336 335 336 334 332 332 332 329 328 330 331 331 331 331 332 334 333 333 333 333 334 333 330 330 330 330 329 326 325 325 323 321 320 320 319 318 318 320 325 326 328 330 331 331 330 331 330 330 330 328 328 328 328 328 326 325 324 323 322 318 318
335 335 336 336 335 333 332 332 330 329 330 331 331 331 331 331 332 333 332 331 331 332 332 329 331 330 328 325 324 324 323 322 320 319 319 319 319 318 318 319 321 323 326 330 331 331 332 331 331 330 329 328 328 329 329 328 327 324 324 324 318 318
335 335 336 336 335 334 333 333 330 329 330 331 331 331 331 330 330 330 329 329 330 331 331 330 330 328 325 324 324 323 322 321 320 319 319 319 319 319 318 318 318 318 322 327 330 331 332 332 331 330 329 328 327 329 330 329 328 325 324 324 319 317
335 335 336 336 335 335 334 333 330 328 330 331 331 332 330 328 327 327 327 328 330 330 330 328 328 326 324 324 323 322 321 320 320 319 319 319 318 318 318 318 319 318 319 323 327 330 332 331 330 330 329 327 327 329 330 329 328 325 322 324 325 320
334 335 336 336 335 335 334 333 331 328 330 331 332 332 329 328 327 327 327 328 329 329 328 327 327 326 324 324 323 322 320 320 321 320 318 318 318 318 318 318 321 320 319 321 325 330 331 331 330 330 329 328 328 329 330 329 328 325 321 324 329 322
333 334 336 336 335 335 333 333 330 328 330 331 332 331 329 329 328 327 327 328 329 329 328 328 328 327 325 324 323 322 320 322 324 322 319 319 319 319 318 320 322 323 321 321 325 330 330 330 330 330 329 329 329 330 330 329 328 326 323 323 327 324
331 334 335 335 335 334 333 333 330 327 331 332 332 331 330 329 328 327 327 328 330 330 329 329 329 328 326 325 324 323 323 324 326 325 323 322 321 320 320 322 324 325 323 322 327 330 329 329 329 329 329 330 330 330 330 328 327 326 325 324 326 326
330 334 335 334 334 334 333 332 329 327 330 331 331 331 330 329 328 326 327 328 329 329 329 328 329 328 327 326 326 326 326 326 326 327 326 325 324 323 323 325 325 326 325 325 328 330 329 328 328 328 330 330 330 330 330 328 327 326 326 325 325 324
331 334 335 335 334 334 333 332 329 327 328 330 331 331 328 328 328 328 328 328 329 329 329 329 329 328 328 328 327 327 327 327 326 327 327 327 327 326 326 326 326 327 327 326 328 329 329 328 328 329 329 330 330 330 329 328 327 326 326 324 322 322
332 334 334 334 334 333 333 332 330 328 328 328 331 330 327 328 329 329 330 329 328 329 329 329 329 328 328 328 327 326 326 326 327 327 327 327 328 327 327 327 327 328 328 328 327 328 328 328 328 328 329 330 329 329 328 328 327 326 325 322 322 323
333 334 335 334 334 334 332 331 329 329 329 328 330 329 327 328 329 330 330 329 327 326 327 328 328 328 327 327 328 327 326 327 327 327 326 327 328 328 328 328 328 329 329 329 328 328 328 328 328 328 329 329 328 328 328 328 328 326 325 323 324 324
333 334 335 334 334 334 332 329 328 329 328 328 329 327 326 329 329 330 330 328 326 324 326 327 328 329 327 327 327 326 326 326 328 327 327 327 328 328 328 328 329 329 330 329 329 329 328 328 329 329 329 328 327 328 328 328 327 326 325 324 325 324
333 334 335 335 334 333 331 329 328 329 328 328 328 325 326 329 330 330 328 326 325 326 327 327 328 328 328 328 326 326 326 325 327 327 327 327 327 328 328 328 328 329 329 328 328 329 328 328 329 329 329 328 327 328 328 328 327 326 326 326 325 325
334 335 335 335 334 332 330 328 328 328 328 329 327 325 327 329 330 329 326 324 325 328 328 328 327 326 327 328 327 326 326 326 326 327 327 327 327 328 327 327 327 328 328 328 327 327 327 329 330 329 328 328 328 328 327 327 327 327 326 326 326 326
335 336 335 335 333 331 330 329 327 327 329 330 327 327 328 329 329 327 324 324 326 328 328 327 327 325 326 328 327 326 326 326 327 327 327 327 327 327 326 327 327 327 328 327 326 326 327 329 329 328 328 328 328 327 327 327 328 327 326 326 326 326
335 335 335 334 333 332 331 329 327 328 329 329 327 327 328 329 330 326 324 325 326 329 328 326 326 325 325 326 326 327 327 327 327 327 327 326 326 326 326 327 327 327 328 327 326 327 328 329 328 328 328 328 327 327 327 327 327 326 326 326 326 326
335 335 334 334 334 333 331 330 330 329 330 328 326 327 327 329 329 326 324 326 328 329 328 327 326 325 325 326 326 327 327 327 327 327 327 326 325 326 326 327 327 327 327 327 327 328 328 328 328 328 328 328 327 327 327 327 327 326 326 326 326 326
335 335 335 334 333 333 331 331 331 330 330 328 326 327 327 327 327 326 326 326 328 328 327 327 326 326 326 325 326 326 327 327 327 327 327 326 326 326 326 327 326 327 327 327 327 328 328 327 328 328 327 327 327 327 327 327 326 325 324 324 324 324
334 334 335 334 333 332 332 331 330 330 328 327 327 327 326 326 327 327 327 326 327 327 327 327 326 326 326 326 327 327 327 327 327 327 328 327 326 326 326 327 326 326 327 327 328 328 328 328 328 327 327 327 327 327 327 325 324 322 321 321 321 322
333 334 335 334 333 332 331 331 329 328 327 326 326 326 325 327 328 326 326 326 326 326 327 327 327 327 327 327 328 328 328 328 327 328 328 327 327 326 326 327 326 326 326 327 328 328 328 328 328 327 328 327 327 327 326 324 322 322 322 322 321 321
333 335 334 333 333 332 331 329 327 327 326 326 326 325 327 328 327 325 326 326 326 327 328 328 327 326 327 327 327 327 328 328 327 328 328 328 327 326 326 327 327 326 326 327 327 328 328 328 328 327 327 327 327 327 326 324 323 323 323 323 322 321
333 334 333 333 333 332 330 327 327 327 326 325 326 326 328 327 325 325 326 327 327 328 328 327 325 325 326 327 327 327 327 328 328 328 328 327 327 326 325 327 327 326 326 326 326 327 328 328 328 327 327 326 326 327 325 324 324 324 323 322 321 320
332 333 333 332 332 330 327 327 328 327 325 326 326 326 325 325 326 326 327 327 327 327 326 325 324 325 327 327 327 327 327 327 327 327 327 326 327 326 325 327 327 326 326 327 326 327 328 328 328 327 326 325 325 326 324 323 325 325 324 322 321 320
332 333 331 330 329 327 326 326 326 325 326 327 325 324 325 326 327 327 327 326 325 325 325 325 325 326 326 326 326 327 327 326 326 326 326 326 326 325 325 327 327 327 326 327 327 327 327 328 328 327 326 326 325 325 324 323 323 324 324 324 322 319
333 332 329 328 327 326 326 326 325 326 326 325 324 325 325 326 326 326 325 325 325 325 326 325 325 324 325 326 326 327 326 326 326 326 326 326 326 326 326 327 328 328 327 327 327 328 327 327 327 327 327 326 325 325 324 323 323 323 323 324 323 320
332 330 328 327 327 326 326 326 326 326 325 324 324 325 325 325 325 324 324 324 325 325 325 325 325 324 324 325 326 326 325 325 325 326 326 326 325 326 326 327 328 328 327 327 328 328 327 327 327 327 326 326 326 325 324 324 324 323 323 323 323 322
329 328 327 327 327 327 327 326 326 325 324 324 323 323 324 324 324 324 324 324 324 324 323 323 324 324 324 324 324 325 324 324 324 324 325 325 325 325 326 326 327 327 327 327 327 327 327 327 327 327 326 327 327 326 325 324 324 324 323 323 323 323
327 327 328 327 327 327 326 326 325 324 325 323 321 321 323 322 321 321 321 320 320 319 318 318 319 321 323 323 323 323 323 323 324 324 324 324 325 325 325 325 326 326 326 326 326 326 326 326 327 327 327 327 327 326 325 324 324 324 323 322 322 322
326 327 327 326 326 326 325 325 324 325 323 320 318 318 318 317 316 316 316 315 315 315 315 316 317 318 320 321 322 322 322 321 322 324 324 324 324 325 325 325 325 326 325 325 326 326 326 327 326 327 328 327 327 327 326 325 324 324 323 322 321 322
326 326 326 325 325 325 324 324 324 323 319 317 317 315 314 314 315 316 316 316 316 316 316 317 318 318 319 319 319 320 321 321 322 323 323 323 324 324 325 325 325 326 325 325 325 326 326 327 327 327 327 327 327 326 325 324 324 324 323 322 321 321
326 326 325 325 325 324 323 323 323 321 318 317 316 314 314 315 316 318 318 317 318 318 318 318 317 318 319 318 317 317 319 320 322 322 322 322 322 323 324 325 325 326 326 326 326 326 326 326 326 326 326 326 327 326 324 323 324 323 322 322 321 321
326 325 324 324 324 323 322 323 323 321 319 318 316 315 314 315 317 318 318 319 319 319 319 318 316 316 318 318 317 317 319 320 322 322 322 321 321 321 322 324 325 325 325 326 326 325 324 325 326 326 325 326 326 325 324 323 323 323 322 322 321 320
325 324 324 323 323 323 323 324 324 322 320 318 316 315 314 315 317 318 318 320 320 319 318 316 315 316 317 318 317 317 319 320 321 323 322 322 321 320 319 322 324 324 324 325 325 324 322 323 325 325 325 325 325 325 324 323 323 322 321 322 320 319

ECMWFFLT2_850_thetae_036.txt.gz
Theta_e
332 336 334 332 332 333 332 327 323 323 323 324 326 326 324 322 323 323 324 325 327 330 330 330 330 328 327 326 329 331 330 328 323 322 325 326 327 325 326 326 328 329 329 329 329 328 326 325 325 324 324 323 325 329 330 329 329 328 325 319 309 309
332 336 337 335 334 333 333 328 324 326 327 327 329 330 328 326 325 326 326 327 328 330 329 330 331 328 329 329 330 330 328 325 322 321 322 323 325 325 326 326 328 330 331 331 330 328 328 326 325 326 326 326 329 331 330 330 330 330 330 325 312 307
331 336 337 337 335 333 334 331 325 327 329 329 332 333 332 331 330 330 330 330 330 331 331 331 332 330 330 331 329 328 327 324 323 322 320 318 323 327 328 327 328 329 331 331 330 330 329 327 327 326 326 329 331 331 330 330 330 329 330 328 318 311
332 335 338 337 335 334 334 333 329 329 330 330 333 334 334 335 335 334 333 333 331 331 332 332 332 331 331 331 328 327 326 326 324 321 318 317 320 326 329 329 329 329 331 331 331 332 333 330 328 327 328 330 331 330 331 330 329 330 329 330 326 322
335 335 338 337 336 335 334 333 332 332 333 333 333 333 334 335 336 336 334 333 332 332 332 332 332 331 332 331 329 328 326 325 323 320 319 318 317 321 327 329 330 330 331 331 331 333 335 333 331 329 330 330 329 329 331 330 330 330 329 329 328 327
337 336 339 338 337 335 334 334 334 335 336 335 334 333 334 333 334 336 334 333 333 333 333 333 332 334 333 330 329 330 328 325 321 320 320 320 318 318 323 327 330 331 331 331 331 333 335 335 332 331 330 329 329 330 331 330 330 330 329 326 325 328
338 338 339 339 337 335 334 335 335 335 337 337 336 335 334 333 335 335 333 333 333 333 333 334 334 335 333 329 329 329 328 324 320 320 320 320 319 318 323 328 329 327 328 330 332 334 335 334 332 331 331 329 329 330 331 331 330 330 328 324 322 326
340 339 339 338 337 335 333 335 334 333 336 337 336 335 334 334 335 334 332 332 333 333 333 335 335 332 329 327 328 326 324 322 319 319 319 320 322 323 327 329 325 322 325 330 332 334 335 333 332 331 331 330 330 331 331 330 329 329 330 328 326 325
339 338 338 337 338 336 333 334 333 333 336 335 333 333 334 334 334 334 334 334 334 334 334 334 334 330 327 326 326 323 321 320 319 319 319 322 325 324 325 327 325 325 328 331 333 333 334 333 332 332 331 331 331 331 330 329 328 330 331 332 329 324
336 336 337 337 337 336 333 333 333 332 333 332 331 332 333 332 331 331 333 333 333 332 333 333 331 328 326 325 323 321 321 320 320 320 320 321 323 322 323 326 328 329 329 330 332 333 333 333 332 332 332 332 332 331 331 330 329 331 331 331 329 325
334 334 335 336 336 336 334 334 334 331 330 331 332 332 332 330 328 329 330 331 330 330 330 330 329 328 327 324 323 321 322 323 324 325 324 322 322 323 325 329 330 330 330 330 332 333 333 332 332 331 332 332 331 330 330 330 329 330 331 331 331 329
335 334 333 334 335 336 335 334 334 331 331 332 332 332 331 328 327 328 329 329 330 329 329 328 328 329 327 325 326 326 325 327 328 329 328 325 324 323 325 328 329 329 329 331 332 332 332 331 331 331 331 332 331 330 330 330 330 330 331 331 331 330
335 334 332 334 336 336 335 335 334 331 330 331 331 332 331 328 327 328 329 329 329 328 327 327 328 328 328 327 328 328 328 328 329 329 329 327 326 324 325 326 325 325 328 331 332 332 332 331 331 331 332 332 330 329 330 330 331 331 331 331 331 330
336 334 333 335 336 335 335 334 333 331 330 330 331 331 329 328 328 328 329 329 329 327 325 326 327 328 329 329 328 328 328 329 328 328 328 328 329 327 327 328 327 328 329 331 332 331 331 331 332 332 331 330 329 328 330 330 331 331 331 331 330 330
337 334 332 335 336 335 335 334 333 331 330 329 329 331 329 328 328 328 329 329 328 327 325 326 327 328 328 329 328 328 329 328 327 327 327 329 330 330 330 330 331 331 332 332 332 331 331 332 332 331 330 329 329 329 329 329 329 330 330 330 330 330
337 334 332 334 336 335 334 334 333 331 330 328 328 330 329 328 328 328 329 329 328 327 325 325 327 326 326 328 329 329 328 326 326 327 328 329 330 331 331 331 332 332 332 332 331 331 332 332 330 328 329 328 328 329 329 329 330 330 330 330 330 329
336 334 333 334 334 334 335 334 332 330 329 329 328 329 329 328 328 329 330 329 328 327 325 326 327 324 324 328 330 328 326 325 326 328 328 328 330 332 331 330 331 332 332 332 332 332 332 330 328 328 329 329 328 329 329 329 330 330 329 330 329 329
335 333 334 335 333 333 334 333 331 330 329 329 328 328 328 328 329 330 330 329 328 326 325 326 326 324 326 329 329 326 325 324 325 327 328 328 330 333 332 330 330 331 332 332 332 332 331 329 328 329 330 328 328 329 329 330 330 329 330 330 329 329
336 333 334 335 334 333 334 332 330 329 329 329 328 329 330 330 329 330 330 328 328 327 325 325 325 325 328 330 328 325 325 325 325 326 327 329 331 331 330 329 329 329 330 331 332 330 329 329 328 329 330 329 328 329 329 329 330 330 330 330 329 329
335 335 335 335 334 334 334 331 330 330 329 329 329 330 332 332 330 330 330 329 329 328 327 325 323 325 328 329 328 327 326 325 325 326 328 329 331 329 327 328 329 329 329 330 330 328 327 329 330 330 330 329 328 329 329 329 329 330 329 329 328 328
335 334 335 334 334 334 333 331 330 330 329 330 330 331 332 332 331 331 331 329 327 328 327 325 325 327 328 328 328 327 326 326 325 327 328 329 331 330 327 328 328 328 328 329 329 329 329 329 329 329 329 329 328 327 327 328 329 329 328 329 329 328
335 334 334 334 333 333 332 331 331 330 329 331 331 332 331 330 332 331 327 327 326 327 329 327 327 328 327 326 326 327 326 326 326 326 328 328 329 329 327 327 328 328 329 329 329 330 329 329 329 329 328 328 328 327 327 327 329 329 329 328 327 325
336 335 334 333 333 333 332 331 332 331 331 332 332 332 331 331 332 330 326 326 326 328 330 329 328 327 326 326 326 327 327 327 327 326 327 328 327 327 327 327 328 329 330 330 331 330 328 328 329 329 329 328 327 327 327 328 328 327 327 326 325 324
335 335 335 334 333 333 332 331 332 331 331 333 332 332 332 331 332 331 328 326 326 328 330 329 328 328 329 328 327 327 328 328 327 326 327 328 327 327 327 328 329 330 330 330 331 330 328 328 328 328 328 327 327 327 327 327 326 325 325 325 325 325
334 334 334 334 333 333 332 331 331 331 331 332 330 330 331 328 329 332 331 328 328 329 329 328 328 330 331 330 328 329 329 329 329 327 327 329 329 327 328 329 330 330 330 330 331 331 330 329 328 327 326 326 327 327 327 327 326 326 325 325 325 325
334 333 332 334 333 333 332 331 331 332 331 330 328 328 329 328 328 332 332 329 329 329 328 328 328 330 330 328 328 329 330 331 331 328 327 329 330 329 329 331 331 330 330 331 331 331 330 329 328 327 326 327 327 325 326 326 326 327 326 325 325 325
335 332 332 333 333 332 332 332 331 331 330 330 330 329 329 329 330 331 330 328 328 328 328 328 328 328 327 327 328 328 329 331 331 329 328 328 330 330 330 331 331 331 331 331 330 329 328 329 328 327 327 327 327 325 325 326 327 327 326 325 325 325
333 332 333 334 333 333 333 331 330 330 331 331 331 328 328 329 329 329 328 328 328 327 328 327 327 327 326 327 328 327 328 330 330 330 328 327 329 330 331 331 331 331 331 331 330 327 327 328 328 327 327 326 327 328 327 327 327 326 326 325 324 324
332 332 333 334 333 333 332 330 329 330 331 331 331 328 327 328 327 328 328 328 328 327 327 327 327 327 327 328 327 327 328 329 329 329 328 328 329 329 331 331 330 330 331 331 328 326 326 328 328 327 327 326 328 328 327 328 327 325 326 325 325 324
333 332 333 333 333 333 331 329 329 329 328 330 330 327 326 327 327 328 328 328 327 326 326 327 327 327 327 328 328 327 327 327 328 327 327 329 328 327 328 328 328 328 328 328 327 326 326 327 328 328 327 326 328 328 327 328 327 326 326 326 325 323
333 332 332 332 332 332 329 328 328 327 327 329 329 326 325 326 327 327 328 327 325 324 325 324 325 324 325 326 328 328 327 326 326 326 327 329 327 325 325 325 327 328 327 326 326 327 327 327 329 329 327 326 327 328 326 327 327 327 326 326 325 323
332 332 331 330 331 330 329 327 327 327 328 328 325 323 323 324 325 327 328 326 323 322 322 321 320 320 321 322 324 326 326 326 325 325 327 329 327 325 325 324 326 327 327 327 326 327 327 327 329 330 329 327 327 327 325 325 325 326 326 326 325 324
332 331 329 328 329 330 329 327 327 328 328 326 323 322 323 322 323 325 325 324 323 324 323 322 320 319 319 319 320 322 324 326 326 324 325 326 327 327 326 325 325 327 327 327 327 326 327 327 328 329 328 326 326 326 325 324 324 325 326 325 325 324
331 330 328 327 329 330 329 328 328 328 326 324 322 322 324 323 322 324 324 322 325 326 325 324 323 321 319 318 318 319 321 324 325 325 324 324 327 328 326 325 326 326 326 326 326 326 326 326 326 327 325 323 325 326 324 324 325 326 326 325 325 324
330 329 327 327 329 330 329 328 327 326 324 323 322 323 325 324 322 324 325 324 325 326 326 326 324 322 319 318 318 318 319 320 321 324 324 324 325 326 325 325 325 325 326 325 325 325 325 324 324 325 325 322 323 325 324 324 325 326 325 325 325 323
330 329 327 328 328 329 328 327 326 324 322 322 322 324 325 323 319 320 323 325 325 325 326 326 324 321 319 319 319 318 317 318 318 321 324 324 324 325 324 324 324 325 325 324 324 325 324 324 323 324 326 324 323 324 324 324 325 326 325 325 325 323
331 330 330 329 327 327 328 326 324 322 321 321 322 323 321 318 317 317 320 322 322 322 322 322 321 319 319 319 319 318 317 318 317 318 320 321 323 324 324 323 324 324 324 324 325 325 325 324 324 325 328 327 325 324 324 324 326 326 324 324 324 322